LSP Weather Reports


time (UTC)temp
F
wind
direction
speed
knots
gust
knots
rain 1hr
in
rain 24hr
in
rain mn
in
humidity
%
barometer
mb
20260507181553 56 336 3.5 7.8 0.00 0.27 0.01 31 1004.8
20260507180053 55 352 0.9 11.3 0.00 0.27 0.01 36 1005.0
20260507174603 55 341 6.1 13.0 0.00 0.33 0.01 29 1005.0
20260507173100 55 355 4.3 8.7 0.00 0.33 0.01 35 1004.9
20260507171609 55 355 0.0 4.3 0.00 0.33 0.01 39 1005.4
20260507170056 54 331 3.5 7.8 0.00 0.33 0.01 39 1005.6
20260507164606 55 309 0.9 7.8 0.00 0.33 0.01 47 1005.7
20260507163052 55 315 3.5 10.4 0.00 0.33 0.01 39 1005.8
20260507161555 53 319 2.6 7.8 0.00 0.33 0.01 44 1006.1
20260507160059 54 355 4.3 8.7 0.00 0.33 0.01 39 1006.1
20260507154553 53 346 2.6 8.7 0.00 0.33 0.01 45 1006.2
20260507153051 52 23 1.7 9.6 0.00 0.33 0.01 51 1006.4
20260507151553 51 338 2.6 8.7 0.00 0.33 0.01 54 1006.5
20260507150057 51 344 1.7 8.7 0.00 0.33 0.01 55 1006.6
20260507144552 51 309 2.6 7.0 0.00 0.33 0.01 53 1006.6
20260507143104 52 0 0.0 7.0 0.00 0.33 0.01 55 1006.5
20260507141558 51 327 2.6 9.6 0.00 0.33 0.01 55 1006.6
20260507140051 52 355 2.6 10.4 0.00 0.33 0.01 55 1006.6
20260507134600 51 14 3.5 9.6 0.00 0.33 0.01 56 1006.7
20260507133057 52 277 3.5 8.7 0.00 0.33 0.01 57 1006.8
20260507131622 51 351 4.3 8.7 0.00 0.33 0.01 56 1007.0
20260507130100 50 311 3.5 7.8 0.00 0.33 0.01 55 1006.9
20260507124558 50 350 3.5 7.8 0.01 0.33 0.01 55 1006.8
20260507123106 49 360 1.7 8.7 0.01 0.33 0.01 57 1006.7
20260507121608 49 5 1.7 8.7 0.01 0.33 0.01 58 1007.1
20260507120057 48 338 3.5 7.8 0.01 0.33 0.01 59 1007.2
20260507114600 48 286 0.9 6.1 0.00 0.32 0.00 60 1007.2
20260507113100 47 274 1.7 7.8 0.00 0.32 0.00 63 1007.0
20260507111559 46 335 1.7 6.1 0.00 0.32 0.00 64 1007.0
20260507110114 45 0 1.7 5.2 0.00 0.32 0.00 66 1006.9
20260507104551 44 290 0.0 4.3 0.00 0.32 0.00 68 1006.6
20260507103057 44 313 0.9 3.5 0.00 0.32 0.00 68 1006.6
20260507101555 43 0 0.9 4.3 0.00 0.32 0.00 69 1007.0
20260507100052 44 313 0.9 5.2 0.00 0.32 0.00 70 1006.7
20260507094607 44 342 1.7 5.2 0.00 0.32 0.00 69 1006.9
20260507093058 44 298 0.9 4.3 0.00 0.32 0.00 69 1006.8
20260507091631 44 0 1.7 4.3 0.00 0.32 0.00 69 1006.7
20260507090105 44 302 1.7 6.1 0.00 0.32 0.00 69 1006.2
20260507084558 45 324 1.7 7.0 0.00 0.32 0.00 70 1006.2
20260507083053 45 286 0.9 7.0 0.00 0.32 0.00 71 1006.3
20260507081552 45 0 1.7 7.0 0.00 0.32 0.00 70 1006.1
20260507080052 45 294 1.7 4.3 0.00 0.32 0.00 71 1006.0
20260507074553 45 275 0.0 4.3 0.00 0.32 0.00 72 1005.8
20260507073054 45 0 0.9 6.1 0.00 0.32 0.00 71 1005.6
20260507071557 45 315 0.0 7.0 0.00 0.32 0.00 71 1005.4
20260507064551 46 293 1.7 7.0 0.00 0.32 0.00 72 1005.6
20260507063053 46 326 2.6 10.4 0.00 0.32 0.00 72 1005.8
20260507061553 46 294 2.6 7.8 0.00 0.32 0.00 72 1005.3
20260507060104 46 292 2.6 8.7 0.00 0.32 0.00 72 1005.6
20260507054559 46 302 2.6 7.8 0.00 0.32 0.00 75 1005.7
20260507053056 47 306 4.3 10.4 0.00 0.32 0.00 74 1005.3
20260507051556 47 299 2.6 10.4 0.00 0.32 0.00 76 1005.1
20260507050111 47 355 2.6 8.7 0.00 0.32 0.00 77 1005.0
20260507044602 47 278 2.6 7.0 0.00 0.32 0.00 78 1005.3
20260507043058 48 284 1.7 7.0 0.00 0.32 0.00 78 1005.3
20260507041553 48 289 2.6 8.7 0.00 0.32 0.00 77 1005.6
20260507040054 48 292 2.6 8.7 0.01 0.32 0.00 77 1005.4
20260507034558 48 300 1.7 7.0 0.02 0.32 0.32 77 1005.4
20260507033054 49 321 2.6 7.8 0.02 0.32 0.32 77 1005.3
20260507031553 49 286 2.6 8.7 0.02 0.32 0.32 77 1005.4
20260507030053 50 333 3.5 11.3 0.02 0.31 0.31 76 1005.0
20260507024558 51 301 3.5 11.3 0.02 0.30 0.30 77 1004.9
20260507023054 52 294 3.5 10.4 0.03 0.30 0.30 78 1004.9
20260507021557 53 301 2.6 9.6 0.03 0.30 0.30 78 1004.6
20260507020055 54 308 1.7 7.8 0.02 0.29 0.29 80 1004.6
20260507014552 54 337 0.9 3.5 0.06 0.28 0.28 83 1004.7
20260507013054 55 288 1.7 4.3 0.07 0.27 0.27 83 1004.5
20260507011552 55 284 1.7 5.2 0.08 0.27 0.27 82 1004.5
20260507010110 55 289 1.7 7.0 0.08 0.27 0.27 79 1004.4
20260507004553 56 340 1.7 7.0 0.02 0.21 0.21 72 1004.1
20260507003057 60 53 1.7 7.0 0.01 0.20 0.20 74 1003.5
20260507001559 60 351 0.0 7.0 0.00 0.19 0.19 74 1003.3
20260507000101 60 184 2.6 10.4 0.00 0.19 0.19 74 1003.3
20260506234602 60 189 3.5 14.8 0.00 0.21 0.19 73 1003.1
20260506233100 61 276 2.6 11.3 0.00 0.21 0.19 71 1003.0
20260506231552 61 222 3.5 12.2 0.00 0.21 0.19 70 1002.9
20260506230057 61 355 1.7 10.4 0.00 0.21 0.19 70 1002.8
20260506224554 61 200 3.5 11.3 0.00 0.21 0.19 69 1003.1
20260506223059 62 280 3.5 10.4 0.00 0.21 0.19 69 1003.0
20260506221555 62 0 1.7 12.2 0.00 0.21 0.19 70 1003.2
20260506220054 62 198 2.6 7.8 0.00 0.21 0.19 70 1003.4
20260506214601 62 210 0.9 10.4 0.00 0.21 0.19 71 1003.4
20260506213056 62 213 1.7 7.8 0.00 0.21 0.19 71 1003.5
20260506211554 62 216 0.9 17.4 0.00 0.21 0.19 72 1003.6
20260506210053 61 59 1.7 7.8 0.01 0.21 0.19 73 1003.6
20260506204555 61 291 1.7 5.2 0.05 0.21 0.19 75 1003.7
20260506203053 61 0 0.0 5.2 0.07 0.21 0.19 78 1004.0
20260506201553 60 0 1.7 5.2 0.07 0.21 0.19 78 1004.2
20260506200052 60 257 0.0 3.5 0.07 0.20 0.18 77 1004.2
20260506194552 60 0 0.0 0.9 0.04 0.16 0.14 76 1004.3
20260506193052 61 0 0.0 1.7 0.02 0.14 0.12 74 1004.4
20260506191557 61 0 0.0 4.3 0.04 0.14 0.12 73 1004.6
20260506190058 61 165 0.9 4.3 0.04 0.12 0.10 72 1004.9
20260506184558 61 179 1.7 6.1 0.06 0.12 0.10 72 1005.0
20260506183053 61 185 1.7 7.8 0.08 0.12 0.10 74 1004.9